OBJECT A

Satellite information

Favourite Embed

Satellite Type and Status

UNKNOWNDECAYED

Key statistics

Satellite OBJECT A at a glance.

Uptime

874

Days in orbit

Revolutions

≈ 15.8

Per day

Orbit

SSO

Sun Synchronous Orbit

Inclination

97.4

Latest

Satellite identification and parameters

Extended collection of information and parameters for OBJECT A.

Object identification

Identified? True

Debris? False

Object name: OBJECT A

International designator: 2021-091A

Object number (NORAD): 49315

Object ID (CCSDS): 49315

Country: PEOPLES REPUBLIC OF CHINA (PRC)

Current information (Y/N): Y

RCS size: SMALL

Orbital parameters

Decay date: March 6, 2024

Period: 90.871 minutes

Inclination: 97.4201 deg

SMA: 6695.412 km

Apoapsis: 318.533 km

Periapsis: 316.02 km

RAAN: 250.0015 deg

Eccentricy: 0.0001876

Argument of periapsis: 90.8827 deg

Mean anomaly: 269.2658 deg

Mean motion: 15.84662737 rev/day

Mean motion (dot): 0.00484901 rev/day2

B* drag term: 0.0020031 1/REarth

Two-line elements (TLE)

Creation date: Feb. 12, 2024, 3:07 a.m.

Reference frame: TEME

Reference center: EARTH

Epoch: Feb. 11, 2024, 9:11 p.m. UTC

TLE line 0: 0 OBJECT A

TLE line 1: 1 49315U 21091A 24042.88283938 .00484901 00000-0 20031-2 0 9990

TLE line 2: 2 49315 97.4201 250.0015 0001876 90.8827 269.2658 15.84662737130232

Live tracking on map

Satellite OBJECT A has decayed and is no longer in orbit. No tracking available.

In-orbit conjunctions

Satellite OBJECT A has decayed and is no longer in orbit. No conjunctions available.

Associated space launch

Xihe, also known as the Chinese Hα Solar Explorer (CHASE), is designed to test a newly developed satellite platform and conduct solar observations. The scientific payload of the satellite is an Hα imaging spectrograph (HIS), which can, for the first time, acquire full-disk spectroscopic solar observations in the Hα waveband. It will complement the observations by on-orbit solar spacecraft (such as SDO, IRIS, STEREO and PSP), as well as future solar missions of the Solar Orbiter and the Chinese Advanced Space-based Solar Observatory (ASO-S). Mission is named Xihe after a solar deity from Chinese mythology.

OBJECT A was lifted into orbit during the mission ‘Long March 2D | Xihe (CHASE)’, on board a Long March 2D space rocket.

The launch took place on Oct. 14, 2021, 10:51 a.m. from Launch Complex 9.

For more information about the launch, click the button.

Launch to space Long March 2D | Xihe (CHASE)
Long March 2D | Xihe (CHASE)

Agency: N/A

Status: Launch Successful

Launch date: Oct. 14, 2021, 10:51 a.m. UTC

Rocket: Long March 2D

Launch pad: Launch Complex 9

Location: Taiyuan Satellite Launch Center, People's Republic of China

...

Latest news about this satellite

News about space launch
China launches hydrogen-alpha solar telescope aboard Long March 2D

China has launched a small experimental solar observatory as part of a multi-satellite launch aboard a Long March 2D rocket Thursday. The launch took place from the Taiyuan Satellite Launch Center at 10:51 UTC (18:51 Bejing time).

News about space launch
China launches orbiting solar observatory

China successfully launched a half-ton scientific research satellite Oct. 14 to study the violent and sudden physical processes behind solar flares, joining 10 other small payloads on a Long March 2D rocket that also tested grid fins to help guide the exp...

News about space launch
China launches first solar observatory, tests grid fins

China carried out its 37th orbital launch of the year Thursday, successfully sending the Chinese H-alpha Solar Explorer and 10 other satellites into orbit.


Newsletter sign-up

Weekly statistics, charts and insights to help you stay on top of the space industry.